STARLINK-6266, 56542

Orbit data source: Space-Track

STARLINK-6266, 56542 is a payload satellite owned by SpaceX/Seattle (US) in LEO that was launched on Sun, 14 May 2023 UTC via an FALCON 9 launch vehicle from the Air Force Eastern Test Range (AFETR). Payload-class satellites include a variety of spacecraft equipped with specific instruments for various scientific and technological missions. These include communications satellites like Starlink; space stations such as the ISS; scientific satellites like the Hubble; Earth observation satellites from companies like Planet Labs, Umbra, and HawkEye 360; GPS; miniature CubeSats for education and research; and military/defense satellites.

Loading next visibility...
Identifier
56542, 2023-065AR
Orbit
LEO
Country
Flag of USUS
Related business
Manufacturer
SpaceX/Seattle
Mission
Operational Commercial Communications
Bus & Motor
STARLINK, Unknown motor
Mass
305 kg wet, ~290 kg dry
Launch date (UTC)
2023-05-14 (3 years ago)
Launch vehicle
FALCON 9
Launch site
Air Force Eastern Test Range (AFETR)
Object type
Payload
Rocket body
Debris
Shape & HBR
Box + 1 Pan, 10.1 m
Radar Cross Section
11.087 m², Large (>1 m²)

Expand to show TLE details & history
Last TLE update: 4 days ago

TLE from 4 days ago
0 STARLINK-6266
1 56542U 23065AR  26169.97382587  .00000582  00000-0  30694-4 0  9992
2 56542  43.0049  14.8749 0001506 272.2109  87.8570 15.27580126171924
Epoch: 2026-06-18T23:22Z
TLE epoch observation values (Epoch: 2026-06-18T23:22:18.555Z)
Latitude
-0.00002°
Longitude
117.0881°
Altitude
482.786 km
Speed
7.626 km/s
True Right ascension
00h 59m 29s
True Declination
0° 00' 00"
Sunlit
Object was in daylight at epoch
Visualization orbit readout
Latitude
Unknown
Longitude
Unknown
Altitude
Unknown
Speed
Unknown
Apparent Right ascension
Unknown
Apparent Declination
Unknown
Sunlit
N/A
Visualization observer readout
Local Sidereal Time
23:08:49
Azimuth
Unknown
Elevation
Unknown
Doppler factor
Unknown
Orbital elements
Apogee altitude
486.027 km
Perigee altitude
483.959 km
Semi-major axis
6,863.13 km
Eccentricity
0.00015
Inclination
43.0049°
RAAN
14.8749°
Arg. of periapsis
272.2109°
True anomaly
87.87425°
Mean anomaly
87.857°
Eccentric anomaly
87.86562°
Mean motion
3.81733 °/min
Orbital period
94.31 mins
BSTAR
0.000030694
Loading maneuver chart data...
Computing Atmospheric mass density...
Loading historical data...
Loading historical data...
Loading historical data...
Loading historical data...
Loading historical data...
Loading historical data...
Loading historical data...

Documentation

Showing up to 5 results
|